User: anonymous   Login
Location: Glendale
(37.4556°N, 88.6714°W)
Time: 14:00:36
(UTC+00:00)
Language:

Okean O Rocket - Orbit

View from above orbital plane
View from above orbital plane
View from above satellite
View from above satellite

Ground track
Ground track

The orbit data is extracted from the following two-line orbital elements,

1 25861U 99039B   20056.46984608 -.00000000  00000-0  75166-5 0  9991
2 25861  98.2057  56.4104 0016152 156.3414 356.2377 14.78565165111064
Epoch (UTC): 25 February 2020 11:16:34
Eccentricity: 0.0016152
inclination: 98.2057°
perigee height: 622 km
apogee height: 645 km
right ascension of ascending node: 56.4104°
argument of perigee: 156.3414°
revolutions per day: 14.78565165
mean anomaly at epoch: 356.2377°
orbit number at epoch: 11106

The dashed part of the orbit path shows where the satellite is in the earth's shadow,  

DLR